This is the latest recevied weather packets stored in our database for station/object VK6JI-11. If no packets are shown the sender has not sent any weather packets the latest 10 day(s).
| Time | Temp. | Humidity | Pressure | Rain* | Wind** | Luminosity | Snow |
|---|---|---|---|---|---|---|---|
| 1778202344 | 17.78° C | 64% | 1029.3 hPa | 0 mm | - | 350 W/m² | - |
| 1778202226 | 17.78° C | 64% | 1029.2 hPa | 0 mm | - | 345 W/m² | - |
| 1778202103 | 17.22° C | 64% | 1029.3 hPa | 0 mm | - | 338 W/m² | - |
| 1778201978 | 17.22° C | 65% | 1029.3 hPa | 0 mm | - | 304 W/m² | - |
| 1778201858 | 17.22° C | 65% | 1029.4 hPa | 0 mm | - | 121 W/m² | - |
| 1778201738 | 17.22° C | 65% | 1029.4 hPa | 0 mm | - | 313 W/m² | - |
| 1778201618 | 17.22° C | 65% | 1029.5 hPa | 0 mm | - | 199 W/m² | - |
| 1778201498 | 17.22° C | 65% | 1029.4 hPa | 0 mm | - | 46 W/m² | - |
| 1778201378 | 16.67° C | 65% | 1029.4 hPa | 0 mm | - | 58 W/m² | - |
| 1778201258 | 16.67° C | 65% | 1029.4 hPa | 0 mm | - | 58 W/m² | - |
| 1778201138 | 16.67° C | 66% | 1029.4 hPa | 0 mm | - | 104 W/m² | - |
| 1778201018 | 16.67° C | 66% | 1029.5 hPa | 0 mm | - | 125 W/m² | - |
| 1778200900 | 16.67° C | 66% | 1029.4 hPa | 0 mm | - | 135 W/m² | - |
| 1778200777 | 16.67° C | 66% | 1029.5 hPa | 0 mm | - | 42 W/m² | - |
| 1778200656 | 16.67° C | 66% | 1029.4 hPa | 0 mm | - | 48 W/m² | - |
| 1778200534 | 16.11° C | 66% | 1029.4 hPa | 0 mm | - | 67 W/m² | - |
| 1778200414 | 16.11° C | 66% | 1029.2 hPa | 0 mm | - | 35 W/m² | - |
| 1778200295 | 16.11° C | 67% | 1029.2 hPa | 0 mm | - | 37 W/m² | - |
| 1778200173 | 16.11° C | 67% | 1029.2 hPa | 0 mm | - | 39 W/m² | - |
| 1778200054 | 16.11° C | 67% | 1029.1 hPa | 0 mm | - | 53 W/m² | - |
| 1778199934 | 16.11° C | 68% | 1029.1 hPa | 0 mm | - | 49 W/m² | - |
| 1778199814 | 16.11° C | 67% | 1029 hPa | 0 mm | - | 72 W/m² | - |
| 1778199691 | 15.56° C | 68% | 1028.9 hPa | 0 mm | - | 56 W/m² | - |
| 1778199569 | 15.56° C | 68% | 1029 hPa | 0 mm | - | 39 W/m² | - |
| 1778199448 | 15.56° C | 68% | 1029 hPa | 0 mm | - | 26 W/m² | - |
* Rain latest hour (hover to see other rain measurements)
** Current wind speed in m/s (hover to see current wind gust speed)